Rochester, NY

10:06 AM EST on December 06, 2019 (GMT -0500)
Greater Rochester International

Weather History for KROC - May, 2019

Change the Weather History Date:

Friday, May 10, 2019

  Actual Average Record
Temperature  
Mean Temperature 58 °F 55 °F  
Max Temperature 69 °F 66 °F 89 °F (1896)
Min Temperature 47 °F 44 °F 28 °F (1966)
Degree Days  
Heating Degree Days 7 10  
Month to date heating degree days 106 118  
Since 1 July heating degree days 6230 6421  
Cooling Degree Days 0 1  
Month to date cooling degree days 0 1  
Year to date cooling degree days 0 5  
Growing Degree Days 8 (Base 50)    
Moisture  
Dew Point 51 °F    
Average Humidity 74    
Maximum Humidity 93    
Minimum Humidity 55    
Precipitation  
Precipitation 0.29 in 0.08 in 1.54 in (1919)
Month to date precipitation 1.44 0.89  
Year to date precipitation 11.37 10.48  
Snow  
Snow 0.00 in 0.00 in 2.00 in (1945)
Month to date snowfall 0.0 0.2  
Since 1 July snowfall 97.1 99.3  
Snow Depth 0.00 in    
Sea Level Pressure  
Sea Level Pressure 29.93 in    
Wind  
Wind Speed 14 mph (WSW)    
Max Wind Speed 33 mph    
Max Gust Speed 43 mph    
Visibility 10 miles    
Events Rain    
T = Trace of Precipitation, MM = Missing Value Source: NWS Daily Summary

Daily Weather History Graph

Daily Weather History Graph

Search for Another Location

Airport or City:

Astronomy

May. 10, 2019 Rise Set
Actual Time 5:52 AM EDT 8:21 PM EDT
Civil Twilight 5:20 AM EDT 8:54 PM EDT
Nautical Twilight 4:40 AM EDT 9:34 PM EDT
Astronomical Twilight 3:55 AM EDT 10:19 PM EDT
Moon 10:48 AM EDT (5/10) 1:15 AM EDT (5/10)
Length of Visible Light 15h 33m
Length of Day
14h 28m
Waxing Crescent, 35% of the Moon is Illuminated
May 10
Waxing Crescent
May 11
First Quarter
May 18
Full
May 26
Last Quarter
Jun 3
New

Hourly Weather History & Observations

Time (EDT) Temp. Dew Point Humidity Pressure Visibility Wind Dir Wind Speed Gust Speed Precip Events Conditions
12:54 AM 64.0 °F 57.0 °F 78% 29.87 in 10.0 mi SSW 19.6 mph 29.9 mph 0.02 in Rain Light Rain
1:54 AM 63.0 °F 57.9 °F 84% 29.87 in 10.0 mi SSW 16.1 mph - 0.03 in Rain Light Rain
2:54 AM 63.0 °F 57.9 °F 84% 29.86 in 10.0 mi SSW 15.0 mph - 0.03 in Rain Rain
3:54 AM 62.1 °F 57.9 °F 86% 29.85 in 10.0 mi SSW 12.7 mph 21.9 mph 0.02 in Rain Light Rain
4:54 AM 63.0 °F 57.9 °F 84% 29.84 in 10.0 mi SSW 10.4 mph 20.7 mph 0.01 in   Overcast
5:54 AM 62.1 °F 57.9 °F 86% 29.83 in 10.0 mi SSW 13.8 mph - 0.00 in Rain Light Rain
6:54 AM 62.1 °F 59.0 °F 90% 29.82 in 6.0 mi South 12.7 mph - 0.07 in Rain Light Rain
7:54 AM 63.0 °F 60.1 °F 90% 29.82 in 10.0 mi SSW 10.4 mph - 0.09 in Rain Light Rain
8:54 AM 63.0 °F 60.1 °F 90% 29.81 in 10.0 mi SSW 6.9 mph - 0.02 in Rain Light Rain
9:54 AM 63.0 °F 61.0 °F 93% 29.82 in 10.0 mi SSW 9.2 mph - 0.01 in Rain Light Rain
10:01 AM 64.0 °F 61.0 °F 90% 29.81 in 10.0 mi SW 9.2 mph - 0.00 in Rain Light Rain
10:54 AM 68.0 °F 63.0 °F 84% 29.83 in 10.0 mi SW 11.5 mph - 0.01 in   Mostly Cloudy
11:54 AM 66.9 °F 57.9 °F 73% 29.86 in 10.0 mi West 23.0 mph 33.4 mph 0.00 in   Mostly Cloudy
12:54 PM 61.0 °F 53.1 °F 75% 29.88 in 10.0 mi West 20.7 mph 31.1 mph N/A   Mostly Cloudy
1:54 PM 61.0 °F 48.9 °F 64% 29.92 in 10.0 mi West 25.3 mph 38.0 mph N/A   Overcast
2:54 PM 62.1 °F 46.9 °F 58% 29.94 in 10.0 mi West 26.5 mph 34.5 mph N/A   Mostly Cloudy
3:54 PM 61.0 °F 45.0 °F 56% 29.96 in 10.0 mi West 18.4 mph 27.6 mph N/A   Mostly Cloudy
4:47 PM 55.9 °F 46.0 °F 69% 29.97 in 10.0 mi NW 13.8 mph 23.0 mph N/A   Overcast
4:54 PM 55.0 °F 45.0 °F 69% 29.98 in 10.0 mi NNW 12.7 mph 23.0 mph N/A   Overcast
5:54 PM 54.0 °F 44.1 °F 69% 30.01 in 10.0 mi WNW 12.7 mph - N/A   Overcast
6:54 PM 53.1 °F 42.1 °F 66% 30.03 in 10.0 mi West 11.5 mph - N/A   Overcast
7:54 PM 52.0 °F 42.1 °F 69% 30.05 in 10.0 mi WNW 8.1 mph - N/A   Overcast
8:54 PM 51.1 °F 39.0 °F 63% 30.08 in 10.0 mi NW 12.7 mph - N/A   Overcast
9:28 PM 50.0 °F 37.9 °F 63% 30.08 in 10.0 mi WNW 12.7 mph 20.7 mph N/A   Overcast
9:54 PM 48.9 °F 37.0 °F 64% 30.10 in 10.0 mi WNW 9.2 mph - N/A   Overcast
10:54 PM 48.0 °F 35.1 °F 61% 30.11 in 10.0 mi NW 10.4 mph - N/A   Overcast
11:54 PM 46.9 °F 35.1 °F 63% 30.11 in 10.0 mi NW 12.7 mph - N/A   Overcast